| time (UTC) | temp F | wind direction | speed MPH | gust MPH | rain 1hr in | rain 24hr in | rain mn in | humidity % | barometer mb |
| 20260904234516 | 76 | 92 | 3.0 | 7.0 | 0.00 | 0.37 | 0.37 | 85 | 1012.1 |
| 20260904234016 | 76 | 99 | 5.0 | 7.0 | 0.00 | 0.37 | 0.37 | 84 | 1012.1 |
| 20260904233538 | 77 | 99 | 4.0 | 7.0 | 0.00 | 0.37 | 0.37 | 84 | 1012.2 |
| 20260904233016 | 77 | 95 | 4.0 | 7.0 | 0.00 | 0.37 | 0.37 | 84 | 1012.2 |
| 20260904232516 | 77 | 87 | 3.0 | 7.0 | 0.00 | 0.37 | 0.37 | 83 | 1012.2 |
| 20260904232016 | 77 | 93 | 4.0 | 7.0 | 0.00 | 0.37 | 0.37 | 83 | 1012.2 |
| 20260904231516 | 77 | 82 | 2.0 | 4.0 | 0.00 | 0.37 | 0.37 | 83 | 1012.3 |
| 20260904231016 | 77 | 77 | 2.0 | 4.0 | 0.00 | 0.37 | 0.37 | 83 | 1012.3 |
| 20260904230537 | 77 | 84 | 2.0 | 5.0 | 0.00 | 0.37 | 0.37 | 83 | 1012.2 |
| 20260904230037 | 77 | 68 | 2.0 | 7.0 | 0.00 | 0.37 | 0.37 | 83 | 1012.3 |
| 20260904225516 | 77 | 74 | 3.0 | 7.0 | 0.00 | 0.37 | 0.37 | 82 | 1012.2 |
| 20260904225036 | 77 | 92 | 3.0 | 6.0 | 0.00 | 0.37 | 0.37 | 82 | 1012.2 |
| 20260904224536 | 77 | 88 | 2.0 | 6.0 | 0.00 | 0.37 | 0.37 | 82 | 1012.1 |
| 20260904224018 | 77 | 64 | 1.0 | 6.0 | 0.00 | 0.37 | 0.37 | 83 | 1012.1 |
| 20260904223516 | 77 | 59 | 3.0 | 8.0 | 0.00 | 0.37 | 0.37 | 82 | 1012.1 |
| 20260904223016 | 77 | 71 | 4.0 | 8.0 | 0.00 | 0.37 | 0.37 | 81 | 1012.0 |
| 20260904222517 | 78 | 45 | 4.0 | 9.0 | 0.00 | 0.37 | 0.37 | 82 | 1012.0 |
| 20260904222017 | 77 | 41 | 4.0 | 9.0 | 0.00 | 0.37 | 0.37 | 83 | 1011.9 |
| 20260904221516 | 77 | 43 | 5.0 | 7.0 | 0.00 | 0.37 | 0.37 | 82 | 1011.8 |
| 20260904221018 | 77 | 39 | 2.0 | 6.0 | 0.00 | 0.37 | 0.37 | 83 | 1011.8 |
| 20260904220518 | 77 | 39 | 3.0 | 6.0 | 0.00 | 0.37 | 0.37 | 82 | 1011.9 |
| 20260904220016 | 78 | 42 | 3.0 | 6.0 | 0.00 | 0.37 | 0.37 | 80 | 1011.8 |
| 20260904215516 | 78 | 69 | 3.0 | 7.0 | 0.00 | 0.37 | 0.37 | 79 | 1011.7 |
| 20260904215038 | 79 | 47 | 4.0 | 7.0 | 0.00 | 0.37 | 0.37 | 80 | 1011.6 |
| 20260904214516 | 79 | 37 | 3.0 | 6.0 | 0.00 | 0.37 | 0.37 | 80 | 1011.6 |
| 20260904214016 | 79 | 50 | 2.0 | 6.0 | 0.01 | 0.38 | 0.37 | 80 | 1011.5 |
| 20260904213516 | 78 | 91 | 3.0 | 8.0 | 0.01 | 0.38 | 0.37 | 80 | 1011.6 |
| 20260904213016 | 78 | 15 | 4.0 | 8.0 | 0.01 | 0.38 | 0.37 | 80 | 1011.7 |
| 20260904212516 | 78 | 35 | 4.0 | 8.0 | 0.01 | 0.38 | 0.37 | 80 | 1011.6 |
| 20260904212057 | 78 | 41 | 4.0 | 6.0 | 0.01 | 0.38 | 0.37 | 81 | 1011.5 |
| 20260904211516 | 78 | 33 | 4.0 | 7.0 | 0.01 | 0.38 | 0.37 | 82 | 1011.6 |
| 20260904211036 | 78 | 27 | 4.0 | 7.0 | 0.02 | 0.38 | 0.37 | 82 | 1011.6 |
| 20260904210517 | 78 | 38 | 3.0 | 5.0 | 0.02 | 0.38 | 0.37 | 82 | 1011.7 |
| 20260904210016 | 78 | 24 | 2.0 | 5.0 | 0.02 | 0.39 | 0.37 | 81 | 1011.7 |
| 20260904205516 | 78 | 66 | 1.0 | 4.0 | 0.02 | 0.39 | 0.37 | 80 | 1011.8 |
| 20260904205016 | 78 | 73 | 2.0 | 4.0 | 0.02 | 0.39 | 0.37 | 80 | 1011.6 |
| 20260904204516 | 78 | 59 | 1.0 | 3.0 | 0.02 | 0.39 | 0.37 | 80 | 1011.5 |
| 20260904204016 | 78 | 21 | 0.0 | 2.0 | 0.02 | 0.38 | 0.36 | 82 | 1011.7 |
| 20260904203516 | 78 | 16 | 0.0 | 5.0 | 0.02 | 0.38 | 0.36 | 81 | 1011.7 |
| 20260904203017 | 77 | 345 | 2.0 | 5.0 | 0.02 | 0.38 | 0.36 | 82 | 1011.9 |
| 20260904202517 | 77 | 351 | 2.0 | 5.0 | 0.02 | 0.38 | 0.36 | 82 | 1012.0 |
| 20260904202016 | 77 | 320 | 1.0 | 3.0 | 0.03 | 0.38 | 0.36 | 82 | 1012.1 |
| 20260904201517 | 76 | 245 | 0.0 | 3.0 | 0.03 | 0.38 | 0.36 | 83 | 1012.1 |
| 20260904201016 | 76 | 228 | 1.0 | 3.0 | 0.02 | 0.38 | 0.35 | 83 | 1012.2 |
| 20260904200516 | 76 | 241 | 1.0 | 3.0 | 0.03 | 0.38 | 0.35 | 84 | 1012.3 |
| 20260904200016 | 75 | 289 | 0.0 | 4.0 | 0.03 | 0.38 | 0.35 | 85 | 1012.1 |
| 20260904195517 | 75 | 153 | 1.0 | 4.0 | 0.03 | 0.38 | 0.35 | 86 | 1012.0 |
| 20260904195016 | 75 | 107 | 1.0 | 6.0 | 0.03 | 0.38 | 0.35 | 87 | 1012.1 |
| 20260904194517 | 74 | 93 | 2.0 | 6.0 | 0.04 | 0.38 | 0.35 | 87 | 1012.0 |
| 20260904194037 | 74 | 130 | 2.0 | 6.0 | 0.03 | 0.37 | 0.34 | 87 | 1012.0 |
| 20260904193517 | 74 | 102 | 3.0 | 6.0 | 0.04 | 0.37 | 0.34 | 88 | 1011.9 |
| 20260904193016 | 74 | 106 | 2.0 | 7.0 | 0.04 | 0.37 | 0.34 | 88 | 1012.0 |
| 20260904192516 | 74 | 128 | 2.0 | 7.0 | 0.04 | 0.37 | 0.34 | 88 | 1012.1 |
| 20260904192016 | 73 | 148 | 1.0 | 6.0 | 0.04 | 0.37 | 0.33 | 89 | 1012.3 |
| 20260904191537 | 73 | 103 | 2.0 | 9.0 | 0.04 | 0.37 | 0.33 | 90 | 1012.3 |
| 20260904191017 | 73 | 111 | 3.0 | 9.0 | 0.04 | 0.37 | 0.33 | 90 | 1012.2 |
| 20260904190538 | 72 | 119 | 4.0 | 8.0 | 0.04 | 0.36 | 0.32 | 90 | 1012.2 |
| 20260904190016 | 72 | 97 | 3.0 | 7.0 | 0.04 | 0.36 | 0.32 | 91 | 1012.3 |
| 20260904185516 | 72 | 83 | 2.0 | 8.0 | 0.04 | 0.36 | 0.32 | 91 | 1012.7 |
| 20260904185016 | 72 | 117 | 5.0 | 8.0 | 0.05 | 0.36 | 0.32 | 90 | 1012.3 |
| 20260904184516 | 72 | 141 | 3.0 | 8.0 | 0.04 | 0.36 | 0.31 | 91 | 1012.5 |
| 20260904184016 | 72 | 171 | 3.0 | 8.0 | 0.05 | 0.36 | 0.31 | 92 | 1012.6 |
| 20260904183516 | 71 | 197 | 2.0 | 4.0 | 0.04 | 0.35 | 0.30 | 92 | 1012.6 |
| 20260904183016 | 71 | 156 | 0.0 | 4.0 | 0.05 | 0.35 | 0.30 | 93 | 1012.9 |
| 20260904182516 | 71 | 188 | 1.0 | 4.0 | 0.05 | 0.35 | 0.30 | 93 | 1013.0 |
| 20260904182016 | 70 | 212 | 1.0 | 4.0 | 0.05 | 0.34 | 0.28 | 93 | 1012.7 |
| 20260904181536 | 70 | 182 | 1.0 | 4.0 | 0.05 | 0.34 | 0.28 | 94 | 1012.6 |
| 20260904181017 | 70 | 157 | 1.0 | 4.0 | 0.05 | 0.34 | 0.28 | 94 | 1012.4 |
| 20260904180537 | 70 | 235 | 0.0 | 9.0 | 0.05 | 0.33 | 0.28 | 94 | 1012.4 |
| 20260904180016 | 70 | 202 | 3.0 | 9.0 | 0.05 | 0.33 | 0.28 | 94 | 1012.4 |
| 20260904175516 | 70 | 200 | 4.0 | 10.0 | 0.06 | 0.33 | 0.28 | 94 | 1012.2 |
| 20260904175036 | 70 | 143 | 6.0 | 10.0 | 0.05 | 0.32 | 0.27 | 94 | 1012.0 |
| 20260904174517 | 69 | 163 | 3.0 | 7.0 | 0.05 | 0.32 | 0.27 | 94 | 1012.4 |
| 20260904174016 | 69 | 72 | 2.0 | 6.0 | 0.05 | 0.31 | 0.26 | 94 | 1013.0 |
| 20260904173516 | 69 | 31 | 3.0 | 9.0 | 0.05 | 0.31 | 0.26 | 95 | 1013.3 |
| 20260904173016 | 69 | 242 | 3.0 | 9.0 | 0.05 | 0.30 | 0.25 | 95 | 1013.4 |
| 20260904172517 | 68 | 225 | 3.0 | 9.0 | 0.05 | 0.30 | 0.25 | 95 | 1012.9 |
| 20260904172016 | 68 | 262 | 2.0 | 9.0 | 0.05 | 0.29 | 0.24 | 95 | 1012.8 |
| 20260904171516 | 68 | 238 | 3.0 | 9.0 | 0.05 | 0.29 | 0.24 | 95 | 1012.6 |
| 20260904171015 | 67 | 158 | 3.0 | 10.0 | 0.05 | 0.29 | 0.24 | 94 | 1011.8 |
| 20260904170516 | 67 | 232 | 4.0 | 13.0 | 0.05 | 0.28 | 0.23 | 95 | 1011.8 |
| 20260904170015 | 67 | 194 | 6.0 | 25.0 | 0.05 | 0.28 | 0.23 | 95 | 1011.3 |
| 20260904165537 | 67 | 173 | 10.0 | 25.0 | 0.04 | 0.27 | 0.22 | 95 | 1010.1 |
| 20260904165016 | 67 | 167 | 12.0 | 19.0 | 0.05 | 0.27 | 0.22 | 95 | 1010.3 |
| 20260904164515 | 67 | 164 | 10.0 | 18.0 | 0.05 | 0.27 | 0.22 | 95 | 1010.9 |
| 20260904164016 | 67 | 165 | 10.0 | 17.0 | 0.04 | 0.26 | 0.21 | 95 | 1011.5 |
| 20260904163517 | 67 | 163 | 11.0 | 17.0 | 0.05 | 0.26 | 0.21 | 95 | 1011.8 |
| 20260904163016 | 68 | 165 | 8.0 | 14.0 | 0.04 | 0.25 | 0.20 | 95 | 1012.6 |
| 20260904162515 | 68 | 191 | 6.0 | 11.0 | 0.04 | 0.25 | 0.20 | 95 | 1013.5 |
| 20260904162036 | 68 | 197 | 5.0 | 12.0 | 0.04 | 0.24 | 0.19 | 96 | 1013.8 |
| 20260904161516 | 68 | 234 | 8.0 | 18.0 | 0.04 | 0.24 | 0.19 | 96 | 1014.3 |
| 20260904161017 | 69 | 243 | 11.0 | 25.0 | 0.05 | 0.24 | 0.19 | 96 | 1014.9 |
| 20260904160517 | 69 | 249 | 14.0 | 25.0 | 0.04 | 0.23 | 0.18 | 96 | 1015.0 |
| 20260904160015 | 69 | 266 | 11.0 | 21.0 | 0.04 | 0.23 | 0.18 | 96 | 1014.9 |
| 20260904155516 | 69 | 234 | 5.0 | 10.0 | 0.05 | 0.23 | 0.18 | 96 | 1014.0 |
| 20260904155036 | 69 | 192 | 3.0 | 9.0 | 0.04 | 0.22 | 0.17 | 96 | 1013.3 |
| 20260904154515 | 69 | 158 | 5.0 | 9.0 | 0.04 | 0.22 | 0.17 | 96 | 1013.2 |
| 20260904154036 | 69 | 134 | 3.0 | 9.0 | 0.05 | 0.22 | 0.17 | 96 | 1013.5 |
| 20260904153515 | 69 | 146 | 4.0 | 14.0 | 0.04 | 0.21 | 0.16 | 96 | 1013.7 |
| 20260904153016 | 69 | 168 | 5.0 | 14.0 | 0.04 | 0.21 | 0.16 | 96 | 1013.8 |
| 20260904152515 | 69 | 169 | 6.0 | 16.0 | 0.04 | 0.21 | 0.16 | 96 | 1013.7 |
| 20260904152016 | 69 | 170 | 7.0 | 16.0 | 0.04 | 0.20 | 0.15 | 96 | 1013.9 |
| 20260904151515 | 69 | 157 | 6.0 | 13.0 | 0.04 | 0.20 | 0.15 | 96 | 1013.9 |
| 20260904151038 | 69 | 130 | 7.0 | 10.0 | 0.03 | 0.19 | 0.14 | 96 | 1014.1 |
| 20260904150515 | 69 | 126 | 6.0 | 9.0 | 0.04 | 0.19 | 0.14 | 96 | 1014.3 |
| 20260904150037 | 69 | 99 | 4.0 | 6.0 | 0.04 | 0.19 | 0.14 | 96 | 1014.7 |
| 20260904145515 | 69 | 106 | 2.0 | 4.0 | 0.03 | 0.18 | 0.13 | 96 | 1014.9 |
| 20260904145017 | 68 | 93 | 2.0 | 7.0 | 0.04 | 0.18 | 0.13 | 96 | 1014.9 |
| 20260904144515 | 68 | 99 | 3.0 | 9.0 | 0.04 | 0.18 | 0.13 | 96 | 1014.7 |
| 20260904144015 | 68 | 90 | 5.0 | 9.0 | 0.03 | 0.17 | 0.12 | 96 | 1014.6 |
| 20260904143515 | 68 | 73 | 2.0 | 5.0 | 0.04 | 0.17 | 0.12 | 96 | 1014.8 |
| 20260904143015 | 68 | 62 | 3.0 | 8.0 | 0.04 | 0.17 | 0.12 | 96 | 1015.0 |
| 20260904142515 | 68 | 63 | 4.0 | 8.0 | 0.04 | 0.17 | 0.12 | 96 | 1014.8 |
| 20260904142015 | 68 | 79 | 4.0 | 8.0 | 0.03 | 0.16 | 0.11 | 96 | 1014.4 |
| 20260904141515 | 68 | 95 | 5.0 | 7.0 | 0.04 | 0.16 | 0.11 | 96 | 1014.4 |
| 20260904141017 | 68 | 100 | 2.0 | 4.0 | 0.04 | 0.16 | 0.11 | 96 | 1014.9 |
| 20260904140515 | 68 | 138 | 2.0 | 6.0 | 0.03 | 0.15 | 0.10 | 96 | 1015.0 |
| 20260904140015 | 68 | 115 | 2.0 | 6.0 | 0.04 | 0.15 | 0.10 | 96 | 1015.1 |
| 20260904135515 | 68 | 74 | 2.0 | 5.0 | 0.04 | 0.15 | 0.10 | 96 | 1015.4 |
| 20260904135015 | 68 | 47 | 1.0 | 4.0 | 0.03 | 0.13 | 0.09 | 96 | 1015.3 |
| 20260904134517 | 68 | 26 | 1.0 | 5.0 | 0.04 | 0.13 | 0.09 | 96 | 1015.3 |
| 20260904134016 | 68 | 69 | 2.0 | 5.0 | 0.04 | 0.13 | 0.09 | 96 | 1015.6 |
| 20260904133515 | 68 | 40 | 2.0 | 7.0 | 0.04 | 0.12 | 0.08 | 96 | 1015.1 |
| 20260904133015 | 68 | 343 | 4.0 | 7.0 | 0.04 | 0.12 | 0.08 | 96 | 1015.6 |
| 20260904132515 | 68 | 351 | 2.0 | 6.0 | 0.04 | 0.12 | 0.08 | 96 | 1015.2 |
| 20260904132015 | 68 | 17 | 2.0 | 5.0 | 0.05 | 0.12 | 0.08 | 96 | 1014.8 |
| 20260904131515 | 68 | 4 | 2.0 | 5.0 | 0.04 | 0.11 | 0.07 | 96 | 1014.9 |
| 20260904131015 | 68 | 41 | 1.0 | 4.0 | 0.04 | 0.11 | 0.07 | 96 | 1014.7 |
| 20260904130517 | 68 | 82 | 2.0 | 7.0 | 0.05 | 0.11 | 0.07 | 96 | 1014.3 |
| 20260904130015 | 68 | 80 | 3.0 | 7.0 | 0.04 | 0.10 | 0.06 | 96 | 1014.2 |
| 20260904125537 | 68 | 67 | 3.0 | 5.0 | 0.04 | 0.10 | 0.06 | 96 | 1014.0 |
| 20260904125016 | 68 | 85 | 2.0 | 4.0 | 0.05 | 0.10 | 0.06 | 96 | 1013.6 |
| 20260904124516 | 68 | 111 | 3.0 | 4.0 | 0.04 | 0.10 | 0.05 | 96 | 1013.6 |
| 20260904124015 | 68 | 124 | 1.0 | 4.0 | 0.04 | 0.10 | 0.05 | 96 | 1013.5 |
| 20260904123536 | 68 | 111 | 2.0 | 6.0 | 0.04 | 0.09 | 0.04 | 96 | 1013.4 |
| 20260904123015 | 68 | 111 | 3.0 | 6.0 | 0.04 | 0.09 | 0.04 | 96 | 1013.4 |
| 20260904122515 | 68 | 95 | 2.0 | 5.0 | 0.04 | 0.09 | 0.04 | 95 | 1013.5 |
| 20260904122015 | 68 | 83 | 3.0 | 6.0 | 0.03 | 0.08 | 0.03 | 95 | 1013.4 |
| 20260904121515 | 68 | 82 | 3.0 | 7.0 | 0.03 | 0.08 | 0.03 | 95 | 1013.3 |
| 20260904121036 | 68 | 88 | 4.0 | 8.0 | 0.03 | 0.08 | 0.03 | 95 | 1013.0 |
| 20260904120515 | 68 | 104 | 6.0 | 8.0 | 0.02 | 0.07 | 0.02 | 95 | 1012.9 |
| 20260904120015 | 68 | 102 | 4.0 | 9.0 | 0.02 | 0.07 | 0.02 | 95 | 1013.1 |
| 20260904115516 | 68 | 51 | 4.0 | 10.0 | 0.02 | 0.07 | 0.02 | 95 | 1013.2 |
| 20260904115016 | 68 | 31 | 6.0 | 13.0 | 0.01 | 0.06 | 0.01 | 95 | 1013.1 |
| 20260904114515 | 69 | 53 | 7.0 | 13.0 | 0.01 | 0.06 | 0.01 | 95 | 1013.0 |
| 20260904114055 | 69 | 4 | 7.0 | 21.0 | 0.01 | 0.06 | 0.01 | 95 | 1014.2 |
| 20260904113557 | 69 | 339 | 13.0 | 22.0 | 0.00 | 0.05 | 0.00 | 95 | 1014.2 |
| 20260904113016 | 69 | 345 | 15.0 | 22.0 | 0.00 | 0.05 | 0.00 | 95 | 1014.3 |
| 20260904112515 | 69 | 357 | 4.0 | 13.0 | 0.00 | 0.05 | 0.00 | 95 | 1013.3 |
| 20260904112015 | 69 | 133 | 0.0 | 3.0 | 0.00 | 0.05 | 0.00 | 95 | 1012.7 |
| 20260904111515 | 69 | 112 | 1.0 | 3.0 | 0.00 | 0.05 | 0.00 | 95 | 1012.4 |
| 20260904111015 | 69 | 76 | 1.0 | 3.0 | 0.00 | 0.05 | 0.00 | 95 | 1012.6 |
| 20260904110515 | 69 | 79 | 1.0 | 4.0 | 0.00 | 0.05 | 0.00 | 95 | 1012.6 |
| 20260904110018 | 69 | 92 | 1.0 | 4.0 | 0.00 | 0.05 | 0.00 | 95 | 1012.5 |
| 20260904105517 | 68 | 117 | 2.0 | 4.0 | 0.00 | 0.05 | 0.00 | 96 | 1012.3 |
| 20260904105037 | 68 | 119 | 1.0 | 3.0 | 0.00 | 0.05 | 0.00 | 96 | 1012.3 |
| 20260904104517 | 68 | 86 | 2.0 | 3.0 | 0.00 | 0.05 | 0.00 | 96 | 1012.6 |
| 20260904104017 | 68 | 72 | 1.0 | 3.0 | 0.00 | 0.05 | 0.00 | 96 | 1012.5 |
| 20260904103517 | 68 | 0.0 | 3.0 | 0.00 | 0.05 | 0.00 | 95 | 1012.4 | |
| 20260904103017 | 68 | 69 | 1.0 | 4.0 | 0.00 | 0.05 | 0.00 | 95 | 1012.2 |
| 20260904102517 | 68 | 72 | 2.0 | 4.0 | 0.00 | 0.05 | 0.00 | 96 | 1012.1 |
| 20260904102017 | 68 | 94 | 1.0 | 3.0 | 0.00 | 0.05 | 0.00 | 96 | 1011.9 |
| 20260904101517 | 68 | 108 | 2.0 | 4.0 | 0.00 | 0.05 | 0.00 | 96 | 1011.7 |
| 20260904101037 | 68 | 109 | 1.0 | 10.0 | 0.00 | 0.05 | 0.00 | 96 | 1011.6 |
| 20260904100518 | 68 | 88 | 6.0 | 10.0 | 0.00 | 0.05 | 0.00 | 96 | 1011.7 |
| 20260904100017 | 68 | 96 | 4.0 | 8.0 | 0.00 | 0.05 | 0.00 | 96 | 1011.7 |
| 20260904095517 | 68 | 91 | 4.0 | 7.0 | 0.00 | 0.05 | 0.00 | 96 | 1011.6 |
| 20260904095017 | 68 | 83 | 3.0 | 6.0 | 0.00 | 0.05 | 0.00 | 96 | 1011.6 |
| 20260904094517 | 68 | 72 | 2.0 | 5.0 | 0.00 | 0.05 | 0.00 | 96 | 1011.6 |
| 20260904094037 | 68 | 44 | 2.0 | 5.0 | 0.00 | 0.05 | 0.00 | 96 | 1011.7 |
| 20260904093517 | 68 | 35 | 2.0 | 5.0 | 0.00 | 0.05 | 0.00 | 96 | 1011.7 |
| 20260904093017 | 68 | 44 | 1.0 | 4.0 | 0.00 | 0.05 | 0.00 | 96 | 1011.5 |
| 20260904092517 | 68 | 36 | 1.0 | 3.0 | 0.00 | 0.05 | 0.00 | 96 | 1011.3 |
| 20260904092017 | 67 | 47 | 1.0 | 3.0 | 0.00 | 0.05 | 0.00 | 96 | 1011.2 |
| 20260904091517 | 67 | 0.0 | 1.0 | 0.00 | 0.05 | 0.00 | 96 | 1011.1 | |
| 20260904091038 | 67 | 123 | 0.0 | 2.0 | 0.00 | 0.05 | 0.00 | 96 | 1010.9 |
| 20260904090517 | 68 | 121 | 0.0 | 2.0 | 0.00 | 0.05 | 0.00 | 96 | 1010.8 |
| 20260904090017 | 68 | 120 | 0.0 | 2.0 | 0.00 | 0.05 | 0.00 | 96 | 1010.9 |
| 20260904085518 | 68 | 121 | 0.0 | 2.0 | 0.00 | 0.05 | 0.00 | 96 | 1011.2 |
| 20260904085018 | 68 | 121 | 0.0 | 2.0 | 0.00 | 0.05 | 0.00 | 96 | 1011.2 |
| 20260904084517 | 68 | 119 | 0.0 | 2.0 | 0.00 | 0.05 | 0.00 | 95 | 1011.5 |
| 20260904084017 | 68 | 119 | 1.0 | 2.0 | 0.00 | 0.05 | 0.00 | 95 | 1011.5 |
| 20260904083517 | 68 | 0.0 | 0.0 | 0.00 | 0.05 | 0.00 | 96 | 1011.5 | |
| 20260904083017 | 68 | 0.0 | 0.0 | 0.00 | 0.05 | 0.00 | 96 | 1011.6 | |
| 20260904082517 | 68 | 0.0 | 0.0 | 0.00 | 0.05 | 0.00 | 96 | 1011.7 | |
| 20260904082016 | 68 | 0.0 | 0.0 | 0.00 | 0.05 | 0.00 | 95 | 1011.6 | |
| 20260904081517 | 68 | 0.0 | 0.0 | 0.00 | 0.05 | 0.00 | 96 | 1011.6 | |
| 20260904081017 | 68 | 0.0 | 0.0 | 0.00 | 0.05 | 0.00 | 96 | 1011.5 | |
| 20260904080518 | 68 | 0.0 | 0.0 | 0.00 | 0.05 | 0.00 | 96 | 1011.5 | |
| 20260904080016 | 68 | 0.0 | 1.0 | 0.00 | 0.05 | 0.00 | 96 | 1011.6 | |
| 20260904075516 | 68 | 78 | 0.0 | 1.0 | 0.00 | 0.05 | 0.00 | 96 | 1011.5 |
| 20260904075037 | 68 | 78 | 0.0 | 1.0 | 0.00 | 0.05 | 0.00 | 95 | 1011.6 |
| 20260904074516 | 68 | 78 | 0.0 | 1.0 | 0.00 | 0.05 | 0.00 | 95 | 1011.8 |
| 20260904074037 | 68 | 78 | 0.0 | 1.0 | 0.00 | 0.05 | 0.00 | 96 | 1012.0 |
| 20260904073537 | 68 | 78 | 0.0 | 1.0 | 0.00 | 0.05 | 0.00 | 95 | 1012.0 |
| 20260904073018 | 67 | 79 | 0.0 | 1.0 | 0.00 | 0.05 | 0.00 | 95 | 1012.0 |
| 20260904072518 | 67 | 81 | 0.0 | 2.0 | 0.00 | 0.05 | 0.00 | 95 | 1011.9 |
| 20260904072016 | 67 | 93 | 0.0 | 2.0 | 0.00 | 0.05 | 0.00 | 96 | 1011.7 |
| 20260904071516 | 67 | 108 | 0.0 | 2.0 | 0.00 | 0.05 | 0.00 | 96 | 1011.6 |
| 20260904071017 | 67 | 125 | 0.0 | 3.0 | 0.00 | 0.05 | 0.00 | 95 | 1011.7 |
| 20260904070517 | 67 | 132 | 1.0 | 4.0 | 0.00 | 0.05 | 0.00 | 95 | 1011.5 |
| 20260904070057 | 67 | 126 | 2.0 | 4.0 | 0.00 | 0.05 | 0.00 | 95 | 1011.6 |
| 20260904065517 | 67 | 121 | 2.0 | 4.0 | 0.00 | 0.05 | 0.00 | 95 | 1011.6 |
| 20260904065018 | 67 | 125 | 2.0 | 4.0 | 0.00 | 0.05 | 0.00 | 95 | 1011.7 |
| 20260904064516 | 67 | 120 | 1.0 | 3.0 | 0.00 | 0.05 | 0.00 | 95 | 1011.8 |
| 20260904064016 | 67 | 117 | 1.0 | 2.0 | 0.00 | 0.05 | 0.00 | 95 | 1012.0 |
| 20260904063538 | 68 | 114 | 1.0 | 3.0 | 0.00 | 0.05 | 0.00 | 95 | 1012.2 |
| 20260904063017 | 68 | 115 | 1.0 | 3.0 | 0.00 | 0.05 | 0.00 | 95 | 1012.3 |
| 20260904062518 | 68 | 108 | 1.0 | 3.0 | 0.00 | 0.05 | 0.00 | 95 | 1012.5 |
| 20260904062016 | 68 | 72 | 0.0 | 2.0 | 0.00 | 0.05 | 0.00 | 95 | 1012.7 |
| 20260904061517 | 68 | 59 | 0.0 | 2.0 | 0.00 | 0.05 | 0.00 | 95 | 1012.9 |
| 20260904061016 | 67 | 76 | 0.0 | 2.0 | 0.00 | 0.05 | 0.00 | 95 | 1013.0 |
| 20260904060516 | 67 | 103 | 0.0 | 2.0 | 0.00 | 0.05 | 0.00 | 95 | 1013.0 |
| 20260904060016 | 67 | 122 | 0.0 | 2.0 | 0.00 | 0.05 | 0.00 | 95 | 1013.0 |
| 20260904055517 | 67 | 121 | 1.0 | 2.0 | 0.00 | 0.05 | 0.00 | 95 | 1013.0 |
| 20260904055016 | 67 | 118 | 0.0 | 2.0 | 0.00 | 0.05 | 0.00 | 95 | 1012.9 |
| 20260904054537 | 68 | 124 | 0.0 | 2.0 | 0.00 | 0.05 | 0.00 | 95 | 1013.0 |
| 20260904054016 | 68 | 124 | 0.0 | 2.0 | 0.00 | 0.05 | 0.00 | 95 | 1013.2 |
| 20260904053516 | 68 | 117 | 1.0 | 2.0 | 0.00 | 0.05 | 0.00 | 95 | 1013.2 |
| 20260904053036 | 68 | 75 | 0.0 | 2.0 | 0.00 | 0.05 | 0.00 | 95 | 1013.1 |
| 20260904052516 | 68 | 74 | 0.0 | 2.0 | 0.00 | 0.05 | 0.00 | 95 | 1013.3 |
| 20260904052018 | 67 | 75 | 0.0 | 2.0 | 0.00 | 0.05 | 0.00 | 95 | 1013.2 |
| 20260904051518 | 67 | 105 | 1.0 | 3.0 | 0.00 | 0.05 | 0.00 | 95 | 1013.1 |
| 20260904051016 | 68 | 137 | 2.0 | 3.0 | 0.00 | 0.05 | 0.00 | 95 | 1012.9 |
| 20260904050538 | 68 | 141 | 1.0 | 3.0 | 0.00 | 0.05 | 0.00 | 95 | 1012.9 |
| 20260904050036 | 68 | 0.0 | 2.0 | 0.00 | 0.05 | 0.00 | 95 | 1013.1 | |
| 20260904045516 | 68 | 80 | 0.0 | 2.0 | 0.00 | 0.05 | 0.00 | 95 | 1013.1 |
| 20260904045036 | 68 | 99 | 1.0 | 2.0 | 0.00 | 0.05 | 0.00 | 95 | 1013.0 |
| 20260904044516 | 68 | 111 | 1.0 | 2.0 | 0.00 | 0.05 | 0.00 | 95 | 1013.0 |
| 20260904044016 | 68 | 110 | 1.0 | 2.0 | 0.00 | 0.05 | 0.00 | 94 | 1013.0 |
| 20260904043516 | 68 | 111 | 0.0 | 2.0 | 0.00 | 0.05 | 0.00 | 94 | 1013.2 |
| 20260904043016 | 68 | 109 | 1.0 | 2.0 | 0.00 | 0.05 | 0.00 | 94 | 1013.4 |
| 20260904042518 | 68 | 106 | 1.0 | 3.0 | 0.00 | 0.05 | 0.00 | 94 | 1013.4 |
| 20260904042016 | 68 | 125 | 2.0 | 3.0 | 0.00 | 0.05 | 0.00 | 94 | 1013.4 |
| 20260904041516 | 68 | 134 | 2.0 | 3.0 | 0.00 | 0.05 | 0.00 | 94 | 1013.4 |
| 20260904041016 | 68 | 135 | 2.0 | 3.0 | 0.00 | 0.05 | 0.00 | 94 | 1013.5 |
| 20260904040538 | 69 | 122 | 1.0 | 3.0 | 0.00 | 0.05 | 0.00 | 94 | 1013.7 |
| 20260904040058 | 69 | 93 | 0.0 | 2.0 | 0.00 | 0.05 | 0.05 | 94 | 1013.7 |
| 20260904035617 | 69 | 93 | 0.0 | 2.0 | 0.00 | 0.05 | 0.05 | 94 | 1013.7 |
| 20260904035017 | 69 | 94 | 0.0 | 2.0 | 0.00 | 0.05 | 0.05 | 94 | 1013.8 |
| 20260904034516 | 69 | 0.0 | 0.0 | 0.00 | 0.05 | 0.05 | 94 | 1013.8 | |
| 20260904034017 | 69 | 0.0 | 0.0 | 0.00 | 0.05 | 0.05 | 94 | 1013.7 | |
| 20260904033538 | 69 | 0.0 | 1.0 | 0.00 | 0.05 | 0.05 | 94 | 1013.8 | |
| 20260904033016 | 69 | 92 | 0.0 | 2.0 | 0.00 | 0.05 | 0.05 | 94 | 1013.8 |
| 20260904032518 | 69 | 34 | 0.0 | 2.0 | 0.00 | 0.05 | 0.05 | 94 | 1013.7 |
| 20260904032016 | 69 | 67 | 0.0 | 2.0 | 0.00 | 0.05 | 0.05 | 94 | 1013.7 |
| 20260904031516 | 69 | 67 | 1.0 | 2.0 | 0.00 | 0.05 | 0.05 | 94 | 1013.7 |
| 20260904031016 | 69 | 92 | 1.0 | 2.0 | 0.00 | 0.05 | 0.05 | 94 | 1013.6 |
| 20260904030517 | 70 | 0.0 | 0.0 | 0.00 | 0.05 | 0.05 | 94 | 1013.6 | |
| 20260904030016 | 70 | 0.0 | 0.0 | 0.00 | 0.05 | 0.05 | 94 | 1013.5 | |
| 20260904025516 | 70 | 0.0 | 0.0 | 0.00 | 0.05 | 0.05 | 94 | 1013.5 | |
| 20260904025018 | 70 | 0.0 | 0.0 | 0.00 | 0.05 | 0.05 | 94 | 1013.5 | |
| 20260904024516 | 70 | 0.0 | 1.0 | 0.00 | 0.05 | 0.05 | 94 | 1013.6 | |
| 20260904024037 | 70 | 108 | 0.0 | 1.0 | 0.00 | 0.05 | 0.05 | 93 | 1013.5 |
| 20260904023537 | 70 | 96 | 0.0 | 2.0 | 0.00 | 0.05 | 0.05 | 93 | 1013.5 |
| 20260904023038 | 70 | 95 | 1.0 | 2.0 | 0.00 | 0.05 | 0.05 | 93 | 1013.5 |
| 20260904022518 | 70 | 67 | 1.0 | 2.0 | 0.00 | 0.05 | 0.05 | 93 | 1013.5 |
| 20260904022017 | 70 | 76 | 1.0 | 2.0 | 0.00 | 0.05 | 0.05 | 93 | 1013.5 |
| 20260904021518 | 70 | 77 | 0.0 | 1.0 | 0.00 | 0.05 | 0.05 | 93 | 1013.4 |
| 20260904021016 | 71 | 77 | 0.0 | 3.0 | 0.00 | 0.05 | 0.05 | 93 | 1013.4 |
| 20260904020517 | 71 | 76 | 1.0 | 3.0 | 0.00 | 0.05 | 0.05 | 93 | 1013.3 |
| 20260904020016 | 71 | 70 | 1.0 | 3.0 | 0.00 | 0.05 | 0.05 | 93 | 1013.2 |
| 20260904015516 | 71 | 65 | 1.0 | 2.0 | 0.00 | 0.05 | 0.05 | 93 | 1013.2 |
| 20260904015018 | 71 | 100 | 0.0 | 2.0 | 0.00 | 0.05 | 0.05 | 93 | 1013.2 |
| 20260904014537 | 71 | 99 | 1.0 | 4.0 | 0.00 | 0.05 | 0.05 | 93 | 1013.1 |
| 20260904014016 | 71 | 105 | 2.0 | 4.0 | 0.00 | 0.05 | 0.05 | 93 | 1013.1 |
| 20260904013518 | 71 | 92 | 2.0 | 4.0 | 0.00 | 0.05 | 0.05 | 93 | 1012.9 |
| 20260904013016 | 71 | 81 | 1.0 | 3.0 | 0.00 | 0.05 | 0.05 | 93 | 1013.0 |
| 20260904012516 | 71 | 94 | 2.0 | 4.0 | 0.00 | 0.05 | 0.05 | 92 | 1012.9 |
| 20260904012016 | 72 | 93 | 2.0 | 4.0 | 0.00 | 0.05 | 0.05 | 92 | 1012.9 |
| 20260904011517 | 72 | 99 | 2.0 | 3.0 | 0.00 | 0.05 | 0.05 | 92 | 1012.9 |
| 20260904011017 | 72 | 116 | 1.0 | 3.0 | 0.00 | 0.05 | 0.05 | 91 | 1012.8 |
| 20260904010517 | 72 | 119 | 2.0 | 4.0 | 0.00 | 0.05 | 0.05 | 91 | 1012.9 |
| 20260904010017 | 72 | 118 | 2.0 | 4.0 | 0.00 | 0.05 | 0.05 | 91 | 1012.8 |
| 20260904005517 | 72 | 119 | 1.0 | 4.0 | 0.00 | 0.05 | 0.05 | 91 | 1012.7 |
| 20260904005016 | 72 | 0.0 | 0.0 | 0.00 | 0.05 | 0.05 | 91 | 1012.8 | |
| 20260904004516 | 73 | 0.0 | 0.0 | 0.00 | 0.05 | 0.05 | 90 | 1012.9 | |
| 20260904004016 | 73 | 0.0 | 1.0 | 0.00 | 0.05 | 0.05 | 90 | 1012.7 | |
| 20260904003516 | 73 | 118 | 0.0 | 1.0 | 0.00 | 0.05 | 0.05 | 90 | 1012.7 |
| 20260904003016 | 73 | 0.0 | 2.0 | 0.00 | 0.05 | 0.05 | 90 | 1012.6 | |
| 20260904002516 | 73 | 77 | 0.0 | 2.0 | 0.00 | 0.05 | 0.05 | 90 | 1012.6 |
| 20260904002017 | 73 | 91 | 1.0 | 3.0 | 0.00 | 0.05 | 0.05 | 89 | 1012.5 |
| 20260904001516 | 74 | 108 | 2.0 | 4.0 | 0.00 | 0.05 | 0.05 | 89 | 1012.3 |
| 20260904001016 | 74 | 107 | 2.0 | 4.0 | 0.00 | 0.05 | 0.05 | 89 | 1012.2 |
| 20260904000516 | 74 | 126 | 2.0 | 5.0 | 0.00 | 0.05 | 0.05 | 89 | 1012.2 |
| 20260904000016 | 74 | 126 | 3.0 | 5.0 | 0.00 | 0.05 | 0.05 | 89 | 1012.2 |
| 20260903235516 | 74 | 115 | 3.0 | 4.0 | 0.00 | 0.05 | 0.05 | 89 | 1012.3 |
| 20260903235016 | 74 | 118 | 2.0 | 7.0 | 0.00 | 0.05 | 0.05 | 89 | 1012.2 |